Weather Roundup
Issued by NWS

Home | Current Version | Previous Version | Graphics & Text | Print | Product List | Glossary Off
Versions: 1 2 3 4 5 6 7 8 9 10 11 12 13 14 15 16 17 18 19 20 21 22 23 24 25 26 27 28 29 30 31 32 33 34 35 36 37 38 39 40 41 42 43 44 45 46 47 48 49 50

000
NZUS93 KARX 050259
HRRWXR

CURRENT HOURLY OBSERVATIONS ACROSS
MUCH OF THE UPPER MISSISSIPPI VALLEY
NATIONAL WEATHER SERVICE LA CROSSE WI
900 PM CST SUN DEC 04 2016


...SOUTHEAST MINNESOTA...


CITY           SKY/WX    TMP DP  RH WIND       PRES   REMARKS
ROCHESTER      CLOUDY    34  33  96 SW16      29.79R WCI  24
ROCHESTER/MAYO CLOUDY    35  35 100 SW10      29.79S WCI  27
WINONA         CLOUDY    36  32  87 SW6       29.81R WCI  31
AUSTIN         NOT AVBL
ALBERT LEA     CLEAR     37  36  93 SW10      29.81R FOG     WCI  30
DODGE CENTER   MOCLDY    34  34 100 SW12      29.79R WCI  25
PRESTON        CLOUDY    32  31  96 SW12      29.81S FOG     WCI  23
OWATONNA       MOCLDY    34  30  86 SW7       29.79R WCI  28
FARIBAULT      MOCLDY    34  30  86 SW3       29.79R
$$

...ELSEWHERE IN MINNESOTA...


CITY           SKY/WX    TMP DP  RH WIND       PRES   REMARKS
MINNEAPOLIS    CLOUDY    37  30  75 W7        29.76S WCI  32
INTNL FALLS    LGT SNOW  30  29  96 S3        29.59F FOG
DULUTH         FRZ DRZL  32  32 100 SW8       29.62F FOG     WCI  25
RED WING       CLOUDY    36  34  93 W3        29.77R
REDWOOD FALLS  CLEAR     32  28  85 SW5       29.77S WCI  27
MANKATO        MOCLDY    35  31  85 SW6       29.80R WCI  30
WORTHINGTON    CLEAR     34  30  85 SW13      29.79S WCI  25
FAIRMONT       CLEAR     34  30  85 SW9       29.81S WCI  27
$$

...SOUTHWEST WISCONSIN...


CITY           SKY/WX    TMP DP  RH WIND       PRES   REMARKS
LA CROSSE      CLOUDY    35  31  85 S9        29.81S WCI  28
PRAIRIE DU CHI CLOUDY    33  30  88 W7        29.87R WCI  27
BOSCOBEL       CLOUDY    35  31  85 SW6       29.88R WCI  30
LONE ROCK      NOT AVBL
PLATTEVILLE    CLOUDY    33  33 100 SW12      29.86S WCI  24
FORT MC COY    PTCLDY    32  31  98 SW6       29.81F WCI  26
MAUSTON-NEW LI CLOUDY    33  32  95 W8        29.81S FOG     WCI  26
VIROQUA        CLOUDY    32  32  99 SW10      29.81F WCI  24
WIS DELLS      CLOUDY    31  30  95 W8        29.82S FOG     WCI  24
$$

...ELSEWHERE IN WISCONSIN...


CITY           SKY/WX    TMP DP  RH WIND       PRES   REMARKS
MILWAUKEE      CLOUDY    32  29  88 SW7       29.85S FOG     WCI  26
MADISON        CLOUDY    32  29  88 SW5       29.84F WCI  27
GREEN BAY      CLOUDY    34  32  92 SW10      29.80F WCI  26
EAU CLAIRE     CLOUDY    34  32  92 SW6       29.75R WCI  29
BLACK RVR FLS  CLOUDY    32  32 100 S3        29.79S FOG
MEDFORD        LGT SNOW  30  29  96 S8        29.72F WCI  22
WAUSAU         CLOUDY    31  30  96 S7        29.73F FOG     WCI  24
WIS RAPIDS     CLOUDY    32  31  96 SW9       29.78F WCI  24
MARSHFIELD     CLOUDY    31  30  96 SW10      29.74F WCI  22
RICE LAKE      CLOUDY    33  32  95 SW6       29.73S WCI  28
$$

...NORTHEAST IOWA...


CITY           SKY/WX    TMP DP  RH WIND       PRES   REMARKS
WATERLOO       CLOUDY    33  30  88 SW14      29.88F WCI  23
DUBUQUE        CLOUDY    32  30  92 W14       29.88R WCI  22
DECORAH        CLOUDY    32  32 100 VRB7G14   29.84R WCI  26
MASON CITY     CLEAR     33  31  92 SW10      29.86R WCI  25
CHARLES CITY   CLOUDY    34  34 100 SW10      29.86R FOG     WCI  26
OELWEIN        CLOUDY    32  32 100 SW12      29.88S WCI  23
$$

...ELSEWHERE IN IOWA...


CITY           SKY/WX    TMP DP  RH WIND       PRES   REMARKS
DES MOINES     PTCLDY    34  32  92 SW9       29.91F WCI  27
IOWA CITY      CLOUDY    35  32  88 W6        29.94S WCI  30
FORT DODGE     CLEAR     30  27  86 S6        29.87S WCI  24
MARSHALLTOWN   CLEAR     31  31 100 S8        29.89S FOG     WCI  23
CEDAR RAPIDS   CLOUDY    33  33 100 W10       29.91S WCI  25
$$

...NORTHERN ILLINOIS...


CITY           SKY/WX    TMP DP  RH WIND       PRES   REMARKS
CHICAGO-OHARE  MOCLDY    27  26  96 SW6       29.88R FOG     WCI  20
CHICAGO-MIDWAY CLOUDY    33  29  85 W12       29.89S FOG     WCI  24
MOLINE         CLOUDY    35  31  85 W10       29.94R WCI  27
ROCKFORD       CLOUDY    32  30  92 SW8       29.91S FOG     WCI  25
PEORIA         CLOUDY    33  33 100 W9        29.98R WCI  25
$$

NOTE: "FAIR" INDICATES FEW OR NO CLOUDS BELOW 12,000 FEET WITH NO
SIGNIFICANT WEATHER AND/OR OBSTRUCTIONS TO VISIBILITY. WIND
SPEEDS ARE IN MILES-PER-HOUR.




USA.gov is the U.S. government's official web portal to all federal, state and local government web resources and services.